DIWATA-2B

Last updated on Mon Jun 22 2026 00:03:18 GMT+0000 (Coordinated Universal Time)

1 43678U 18084H 26172.50455841 .00001869 00000+0 15345-3 0 9993 2 43678 98.1194 8.9000 0012857 156.4767 203.7046 15.00468688416861
UTC large
Height (km)
Speed (km/s)
/
Latitude / Longitude
Inclination (degrees)
Orbital Period (minutes)
Azimuth
Elevation
Range (km)
Doppler Factor

Next 0 passes for location: London (51.5072 / 0.1276)

No passes found over London.
DIWATA-2B